RH
45 46 43 49 51 45 43 42 46 49 55 54 46 44 43 44 42 35 29 27 30 30 30 31 28 22 22 28 36 44 32 18 17 21 25 21 25 37 37 37 40 42 44
45 48 41 49 51 50 43 44 46 46 48 54 50 44 44 44 45 40 33 28 30 32 35 42 41 35 22 27 32 38 29 16 15 14 15 16 23 31 38 37 41 42 40
43 45 42 47 47 50 48 47 47 49 51 48 49 52 51 48 46 45 36 30 29 33 44 56 56 48 25 21 25 23 18 15 14 14 14 14 15 17 19 20 22 22 26
40 40 46 47 48 46 50 51 51 50 49 50 50 50 49 50 49 48 42 37 32 43 58 55 58 49 35 24 22 23 15 14 14 14 14 13 13 13 13 13 14 14 15
39 39 41 45 58 51 51 53 57 55 54 53 53 54 53 48 45 46 41 41 37 40 49 57 61 48 39 29 24 23 23 15 15 15 15 15 13 12 12 13 14 15 16
39 42 44 46 46 52 54 55 55 54 58 59 57 54 52 52 45 46 42 37 38 38 44 50 58 47 36 33 28 25 23 23 18 15 15 16 16 15 13 13 14 15 16
34 42 45 49 53 52 54 55 57 58 57 57 59 60 57 57 56 54 55 51 47 45 44 47 57 58 43 38 33 28 25 24 24 20 17 16 17 17 15 14 13 14 14
23 34 41 46 52 54 56 57 56 56 56 60 62 61 57 58 59 59 58 57 55 55 54 54 59 58 56 42 40 37 32 28 27 26 21 18 19 19 18 15 15 15 16
23 23 30 39 44 46 50 52 55 56 57 61 63 64 65 64 62 62 63 61 57 57 57 58 60 60 60 56 44 44 43 38 33 31 28 26 22 19 17 16 16 17 17
18 22 24 26 36 41 45 48 50 51 51 51 55 56 59 63 64 62 63 66 62 57 58 61 59 61 62 61 59 48 45 44 42 39 35 32 29 27 21 18 16 16 17
10 10 13 17 20 28 37 41 45 48 52 52 51 51 54 57 59 62 64 63 63 60 57 57 60 61 61 63 66 62 52 47 47 46 45 41 38 34 29 23 18 17 17
9 8 8 8 10 12 16 26 36 40 43 47 52 56 58 58 57 60 65 67 64 64 60 59 62 65 65 64 66 66 64 58 51 49 50 48 45 44 38 31 25 21 18
10 10 9 9 8 8 10 12 17 29 38 41 45 48 49 51 56 61 66 66 65 67 67 66 62 64 66 69 70 70 69 69 64 52 50 51 48 49 49 44 39 29 23
11 11 11 10 10 9 9 8 10 13 23 33 38 42 45 48 54 59 65 69 67 66 68 69 70 70 69 68 69 70 70 72 73 65 56 54 55 52 53 51 48 45 38
14 14 15 14 13 11 10 10 10 9 11 18 31 35 38 42 47 53 58 61 65 64 62 64 70 71 73 71 71 74 79 78 79 78 71 66 65 63 60 59 57 55 50
20 18 17 16 15 14 13 13 12 11 11 10 15 28 35 40 42 45 49 51 52 53 56 63 70 68 80 83 88 82 82 85 86 87 85 83 81 79 74 70 69 67 62
24 22 19 18 17 17 16 15 14 13 13 13 12 14 29 39 42 51 50 49 51 49 51 57 65 63 66 74 88 90 91 91 90 94 92 91 92 88 87 83 77 75 71
26 24 23 23 23 22 21 19 19 18 17 16 15 14 16 30 48 50 58 56 56 56 55 56 57 54 53 52 54 62 69 75 79 80 85 88 93 95 92 92 90 87 78
27 26 27 26 25 25 24 23 22 23 23 21 18 18 16 21 38 57 58 64 71 74 74 69 58 54 53 53 51 48 49 51 57 64 64 69 72 79 86 91 90 90 88
29 29 29 27 26 25 25 24 24 24 27 28 27 22 22 24 32 56 65 71 79 78 83 85 83 80 67 57 51 46 43 42 43 44 45 46 47 51 64 71 80 85 86
33 32 31 28 27 27 28 28 27 28 30 32 33 29 28 30 34 42 64 82 84 92 90 88 84 80 75 70 62 49 42 40 38 37 36 35 36 40 46 52 59 64 71
35 33 33 32 35 39 42 39 38 38 39 42 42 44 41 38 40 47 52 66 83 98 93 92 88 86 81 77 73 67 53 39 32 31 30 29 27 28 31 38 50 57 60
36 36 39 43 47 50 47 47 48 45 45 42 41 45 56 51 49 52 77 78 75 88 98 98 93 89 83 80 80 77 61 47 36 31 27 29 34 36 35 36 42 51 57
41 43 47 51 54 53 49 55 59 59 58 60 65 63 62 64 70 73 77 97 96 95 95 98 93 92 87 82 77 75 70 61 52 41 34 33 36 40 45 43 41 50 59
48 49 54 55 56 60 56 57 63 64 70 77 84 83 95 89 86 84 80 82 93 95 97 94 96 94 89 84 77 72 67 60 56 59 46 42 42 45 48 49 50 51 59
53 55 57 59 61 63 66 64 62 62 69 76 83 86 91 95 95 95 90 81 84 87 88 90 91 89 88 81 76 77 71 71 67 68 63 52 57 57 54 52 52 58 66